Weather History for Fayetteville, NC

Change the Weather History Date:

Monday, September 30, 2013

  Actual Average Record
Temperature  
Mean Temperature 67 °F 69 °F  
Max Temperature 78 °F 79 °F 92 °F (1939)
Min Temperature 55 °F 59 °F 40 °F (1967)
Degree Days  
Heating Degree Days 0 1  
Month to date heating degree days 0 8  
Since 1 July heating degree days 0 9  
Cooling Degree Days 2 5  
Month to date cooling degree days 265 268  
Year to date cooling degree days 1844 1908  
Growing Degree Days 16 (Base 50)    
Moisture  
Dew Point 54 °F    
Average Humidity 67    
Maximum Humidity 93    
Minimum Humidity 40    
Precipitation  
Precipitation 0.00 in 0.15 in 4.40 in (1924)
Month to date precipitation 1.07 4.40  
Year to date precipitation 35.63 35.83  
Sea Level Pressure  
Sea Level Pressure 30.04 in    
Wind  
Wind Speed 4 mph (NNE)    
Max Wind Speed 13 mph    
Max Gust Speed 17 mph    
Visibility 10 miles    
Events      
T = Trace of Precipitation, MM = Missing Value Source: NWS Daily Summary

Daily Weather History Graph

Daily Weather History Graph

Search for Another Location

Airport:

Trip Planner

Search our weather history database for the weather conditions in past years. The results will help you decide how hot, cold, wet, or windy it might be!

Date:

Astronomy

Sep. 30, 2013 Rise Set
Actual Time 7:09 AM EDT 7:00 PM EDT
Civil Twilight 6:44 AM EDT 7:25 PM EDT
Nautical Twilight 6:15 AM EDT 7:55 PM EDT
Astronomical Twilight 5:45 AM EDT 8:24 PM EDT
Moon 2:53 AM EDT (9/30) 4:22 PM EDT (9/30)
Length of Visible Light 12h 41m
Length of Day
11h 50m
Waning Crescent, 19% of the Moon is Illuminated
Sep 30
Waning Crescent
Oct 4
New
Oct 11
First Quarter
Oct 18
Full
Oct 26
Last Quarter

Hourly Weather History & Observations

Time (EDT) Temp. Dew Point Humidity Pressure Visibility Wind Dir Wind Speed Gust Speed Precip Events Conditions
12:53 AM 59.0 °F 53.1 °F 81% 30.02 in 10.0 mi North 3.5 mph - N/A   Clear
1:53 AM 55.9 °F 53.1 °F 90% 30.02 in 10.0 mi North 4.6 mph - N/A   Clear
2:53 AM 55.9 °F 53.1 °F 90% 30.02 in 10.0 mi North 5.8 mph - N/A   Clear
3:53 AM 55.9 °F 54.0 °F 93% 30.02 in 10.0 mi North 4.6 mph - N/A   Clear
4:53 AM 55.9 °F 54.0 °F 93% 30.02 in 10.0 mi NNE 3.5 mph - N/A   Clear
5:53 AM 57.0 °F 55.9 °F 96% 30.04 in 10.0 mi North 3.5 mph - N/A   Scattered Clouds
6:53 AM 55.9 °F 54.0 °F 93% 30.06 in 8.0 mi North 3.5 mph - N/A   Clear
7:53 AM 59.0 °F 55.9 °F 90% 30.07 in 10.0 mi North 3.5 mph - N/A   Clear
8:53 AM 61.0 °F 57.9 °F 90% 30.07 in 10.0 mi Calm Calm - N/A   Clear
9:53 AM 66.9 °F 57.0 °F 70% 30.07 in 10.0 mi NNE 6.9 mph - N/A   Clear
10:53 AM 69.1 °F 57.9 °F 68% 30.07 in 10.0 mi NE 5.8 mph - N/A   Clear
11:53 AM 71.1 °F 55.9 °F 59% 30.06 in 10.0 mi NNE 9.2 mph - N/A   Clear
12:53 PM 75.0 °F 55.9 °F 51% 30.05 in 10.0 mi NNE 10.4 mph - N/A   Partly Cloudy
1:53 PM 75.0 °F 54.0 °F 48% 30.02 in 10.0 mi Variable 5.8 mph - N/A   Clear
2:53 PM 75.9 °F 52.0 °F 43% 30.01 in 10.0 mi NE 4.6 mph - N/A   Scattered Clouds
3:53 PM 77.0 °F 52.0 °F 42% 29.99 in 10.0 mi NE 9.2 mph - N/A   Scattered Clouds
4:53 PM 77.0 °F 51.1 °F 40% 29.99 in 10.0 mi Variable 3.5 mph - N/A   Partly Cloudy
5:53 PM 75.0 °F 52.0 °F 44% 30.00 in 10.0 mi ENE 3.5 mph - N/A   Clear
6:53 PM 71.1 °F 53.1 °F 53% 30.01 in 10.0 mi ENE 3.5 mph - N/A   Overcast
7:53 PM 68.0 °F 54.0 °F 61% 30.02 in 10.0 mi Calm Calm - N/A   Clear
8:53 PM 64.0 °F 54.0 °F 70% 30.04 in 10.0 mi Calm Calm - N/A   Clear
9:53 PM 63.0 °F 55.0 °F 75% 30.05 in 9.0 mi Calm Calm - N/A   Clear
10:53 PM 61.0 °F 54.0 °F 78% 30.06 in 10.0 mi Calm Calm - N/A   Clear
11:53 PM 59.0 °F 54.0 °F 83% 30.06 in 10.0 mi Calm Calm - N/A   Clear